Location: San Antonio
(29.4240°N, 98.4930°W)
Time: 19:47:16
(UTC-06:00)

S-56A Canister/Altair - Pass Details

Date: 26 July 2025
Orbit: 632 x 2485 km, 38.9° (Epoch: 8 February)

Event Time Altitude Azimuth Distance (km) Brightness Sun altitude
Rises 21:52:43 0° 300° (WNW) 2,913 12.3 -16.7°
Reaches altitude 10° 21:54:56 10° 305° (NW) 2,031 11.0 -17.1°
Maximum altitude 21:59:21 54° 24° (NNE) 862 7.8 -17.9°
Enters shadow 22:02:06 26° 90° (E) 1,492 8.5 -18.4°
